Regional Weather Roundup
Issued by NWS

Home | Current Version | Previous Version | Graphics & Text | Print | Product List | Glossary On
Versions: 1 2 3 4 5 6 7 8 9 10 11 12 13 14 15 16 17 18 19 20 21 22 23 24 25 26 27 28 29 30 31 32 33 34 35 36 37 38 39 40 41 42 43 44 45 46 47 48 49 50
000
ASUS43 KBIS 031102
RWRND

NORTH DAKOTA REGIONAL WEATHER ROUNDUP
NATIONAL WEATHER SERVICE BISMARCK ND
600 AM CDT THU SEP 03 2015

NOTE: "FAIR" INDICATES FEW OR NO CLOUDS BELOW 12,000 FEET WITH NO
SIGNIFICANT WEATHER AND/OR OBSTRUCTIONS TO VISIBILITY.


NDZ001>003-009>011-017-031200-
NORTHWEST NORTH DAKOTA

CITY           SKY/WX    TMP DP  RH WIND       PRES   REMARKS
WILLISTON      PTCLDY    66  55  67 N8        29.64F
MINOT          FOG       66  64  93 E3        29.66R VSB 1/4
MINOT AFB      FOG       65  65 100 SE9       29.65R VSB 1
$$

NDZ018>021-031>035-040>046-031200-
SOUTHWEST NORTH DAKOTA

CITY           SKY/WX    TMP DP  RH WIND       PRES   REMARKS
BISMARCK       CLEAR     67  67 100 E10       29.68S FOG
DICKINSON      CLEAR     65  58  78 S12       29.66S
GARRISON         N/A     70  31  23 E7        29.66F
HETTINGER ARPT CLEAR     53  50  89 CALM      29.72R
$$

NDZ004>008-012>016-024-026-027-054-031200-
NORTHEAST NORTH DAKOTA

CITY           SKY/WX    TMP DP  RH WIND       PRES   REMARKS
GRAND FORKS    CLOUDY    70  68  93 SE14      29.77F FOG
GRND FRKS AFB  CLOUDY    70  68  94 SE10      29.78R FOG
DEVILS LAKE    CLOUDY    73  66  78 SE15G21   29.73S
$$

NDZ022-023-025-028>030-036>039-047>053-031200-
SOUTHEAST NORTH DAKOTA

CITY           SKY/WX    TMP DP  RH WIND       PRES   REMARKS
FARGO          CLOUDY    73  69  87 SE17G26   29.79R
JAMESTOWN      CLOUDY    73  71  93 SE12G22   29.75R FOG
$$




USA.gov is the U.S. government's official web portal to all federal, state and local government web resources and services.